Weather reports worldwide

Advertisment
Cabo Busto, Spain (8010): temperature & dewpoint: 18.06.2018 16:00:00 - 24.06.2018 16:00:00 (CEST)Cabo Busto, Spain (8010): wind speed & gusts: 18.06.2018 16:00:00 - 24.06.2018 16:00:00 (CEST)Cabo Busto, Spain (8010): wind direction: 18.06.2018 16:00:00 - 24.06.2018 16:00:00 (CEST)Cabo Busto, Spain (8010): reduced air pressure: 18.06.2018 16:00:00 - 24.06.2018 16:00:00 (CEST)Cabo Busto, Spain (8010): visibility: 18.06.2018 16:00:00 - 24.06.2018 16:00:00 (CEST)Cabo Busto, Spain (8010): sunshine duration: 18.06.2018 16:00:00 - 24.06.2018 16:00:00 (CEST)Cabo Busto, Spain (8010): precipitation: 18.06.2018 16:00:00 - 24.06.2018 16:00:00 (CEST)
Date & Time tt [°C] td [°C] ff [km/h] ff [kn] fx [km/h] fx [kn] dd ppp [hPa] vv [km] sd [min] rr [mm]
24.06.2018 16:00:00 - - - - - - - - - - -
24.06.2018 15:00:00 - - - - - - - - - - -
24.06.2018 14:00:00 - - - - - - - - - - -
24.06.2018 13:00:00 - - - - - - - - - - -
24.06.2018 12:00:00 - - - - - - - - - - -
24.06.2018 11:00:00 - - - - - - - - - - -
24.06.2018 10:00:00 18,8 15,4 4 2 78 42 ENE 1015,8 7 60 0,0
24.06.2018 09:00:00 17,6 15,4 3 1 11 6 W 1015,7 5 60 0,0
24.06.2018 08:00:00 16,1 14,2 2 1 13 7 WSW 1015,8 4,1 13 -
24.06.2018 07:00:00 15,5 13,7 9 5 12 7 WSW 1015,6 3,8 0 0,0
24.06.2018 06:00:00 15,6 13,7 7 4 9 5 W 1015,3 6 0 0,0
24.06.2018 05:00:00 15,5 13,4 3 1 24 13 NNW 1015,6 4,4 0 0,0
24.06.2018 04:00:00 16,0 13,5 16 8 32 17 E 1015,6 14 0 0,0
24.06.2018 03:00:00 16,4 13,5 21 12 46 25 E 1016,0 16 0 0,0
24.06.2018 02:00:00 16,2 13,7 21 11 41 22 E 1016,4 12 0 -
24.06.2018 01:00:00 15,8 13,5 22 12 45 24 E 1016,9 9 0 0,0
24.06.2018 00:00:00 16,0 13,7 23 12 42 23 E 1017,0 12 0 0,0
23.06.2018 23:00:00 - - - - - - - - - - -
23.06.2018 22:00:00 - - - - - - - - - - -
23.06.2018 21:00:00 - - - - - - - - - - -
23.06.2018 20:00:00 - - - - - - - - - - -
23.06.2018 19:00:00 - - - - - - - - - - -
23.06.2018 18:00:00 17,7 14,8 32 17 57 31 NE 1016,7 17 60 0,0
23.06.2018 17:00:00 - - - - - - - - - - -
23.06.2018 16:00:00 - - - - - - - - - - -
23.06.2018 15:00:00 - - - - - - - - - - -
23.06.2018 14:00:00 - - - - - - - - - - -
23.06.2018 13:00:00 - - - - - - - - - - -
23.06.2018 12:00:00 - - - - - - - - - - -
23.06.2018 11:00:00 18,1 14,4 18 10 40 21 E 1019,6 20 60 0,0
23.06.2018 10:00:00 17,9 14,6 14 8 35 19 E 1019,7 12 60 0,0
23.06.2018 09:00:00 17,8 14,5 13 7 24 13 E 1019,6 20 60 0,0
23.06.2018 08:00:00 16,5 14,1 13 7 29 16 E 1019,4 14 14 -
23.06.2018 07:00:00 16,2 14,0 17 9 29 16 E 1019,1 14 0 0,0
23.06.2018 06:00:00 15,9 13,9 16 8 30 16 E 1019,2 10 0 0,0
23.06.2018 05:00:00 15,9 13,8 18 10 32 17 E 1019,4 13 0 0,0
23.06.2018 04:00:00 15,8 13,7 16 8 34 18 E 1019,8 15 0 0,0
23.06.2018 03:00:00 15,9 13,6 16 9 40 22 ENE 1020,0 8 0 0,0
23.06.2018 02:00:00 16,4 13,9 23 12 45 24 NE 1020,3 9 0 -
23.06.2018 01:00:00 16,3 13,9 27 15 45 24 NE 1020,8 11 0 0,0
23.06.2018 00:00:00 - - - - - - - - - - -
22.06.2018 23:00:00 - - - - - - - - - - -
22.06.2018 22:00:00 - - - - - - - - - - -
22.06.2018 21:00:00 - - - - - - - - - - -
22.06.2018 20:00:00 - - - - - - - - - - -
22.06.2018 19:00:00 - - - - - - - - - - -
22.06.2018 18:00:00 - - - - - - - - - - -
22.06.2018 17:00:00 - - - - - - - - - - -
22.06.2018 16:00:00 - - - - - - - - - - -
22.06.2018 15:00:00 - - - - - - - - - - -
22.06.2018 14:00:00 - - - - - - - - - - -
22.06.2018 13:00:00 18,8 16,6 26 14 40 22 NE 1021,4 14 60 0,0
22.06.2018 12:00:00 18,7 16,5 23 12 37 20 NE 1021,2 15 60 0,0
22.06.2018 11:00:00 - - - - - - - - - - -
22.06.2018 10:00:00 - - - - - - - - - - -
22.06.2018 09:00:00 - - - - - - - - - - -
22.06.2018 08:00:00 - - - - - - - - - - -
22.06.2018 07:00:00 - - - - - - - - - - -
22.06.2018 06:00:00 - - - - - - - - - - -
22.06.2018 05:00:00 16,5 15,2 17 9 29 16 E 1021,8 9 0 0,0
22.06.2018 04:00:00 16,5 15,2 13 7 27 14 ENE 1022,2 6 0 0,0
22.06.2018 03:00:00 16,4 15,1 15 8 32 18 ENE 1022,6 7 0 0,0
22.06.2018 02:00:00 16,5 15,2 16 9 31 17 ENE 1022,7 3,6 0 -
22.06.2018 01:00:00 16,8 15,7 18 10 35 19 E 1022,9 11 0 0,0
22.06.2018 00:00:00 16,8 15,7 23 12 34 18 E 1022,8 3,4 0 0,2
21.06.2018 23:00:00 16,8 15,7 18 10 33 18 ENE 1022,9 0,2 0 0,2
21.06.2018 22:00:00 - - - - - - - - - - -
21.06.2018 21:00:00 17,1 16,0 19 10 29 16 ENE 1022,2 0,2 0 0,4
21.06.2018 20:00:00 17,3 16,0 19 10 27 14 ENE 1022,3 0,3 0 -
21.06.2018 19:00:00 - - - - - - - - - - -
21.06.2018 18:00:00 - - - - - - - - - - -
21.06.2018 17:00:00 - - - - - - - - - - -
21.06.2018 16:00:00 - - - - - - - - - - -
21.06.2018 15:00:00 - - - - - - - - - - -
21.06.2018 14:00:00 18,3 16,6 10 6 25 13 ENE 1022,1 4,8 0 -
21.06.2018 13:00:00 18,1 16,6 12 7 21 11 E 1022,2 9 0 0,0
21.06.2018 12:00:00 18,2 16,9 11 6 16 9 ENE 1021,9 9 0 0,0
21.06.2018 11:00:00 18,5 17,1 9 5 19 10 ENE 1021,6 0,7 3 0,2
21.06.2018 10:00:00 - - - - - - - - - - -
21.06.2018 09:00:00 - - - - - - - - - - -
21.06.2018 08:00:00 17,7 16,4 10 5 20 11 NNE 1020,7 0,1 0 -
21.06.2018 07:00:00 17,9 16,6 4 2 11 6 NNE 1020,2 0,2 0 0,0
21.06.2018 06:00:00 17,8 16,5 4 2 10 5 E 1020,1 0,3 0 0,0
21.06.2018 05:00:00 17,8 16,3 6 4 10 5 E 1020,3 0,3 0 0,0
21.06.2018 04:00:00 17,8 16,3 8 4 10 6 E 1020,5 0,3 0 0,0
21.06.2018 03:00:00 18,0 16,3 5 3 8 5 E 1020,8 0,3 0 0,0
21.06.2018 02:00:00 18,1 16,2 6 3 8 4 E 1021,3 3,0 0 -
21.06.2018 01:00:00 - - - - - - - - - - -
21.06.2018 00:00:00 - - - - - - - - - - -
20.06.2018 23:00:00 - - - - - - - - - - -
20.06.2018 22:00:00 - - - - - - - - - - -
20.06.2018 21:00:00 - - - - - - - - - - -
20.06.2018 20:00:00 18,9 16,5 3 1 9 5 N 1019,4 6 0 -
20.06.2018 19:00:00 19,0 16,6 5 3 7 4 NNE 1018,8 16 0 0,0
20.06.2018 18:00:00 19,9 17,3 5 3 13 7 NE 1018,9 10 0 0,0
20.06.2018 17:00:00 20,1 17,5 5 3 11 6 ENE 1018,8 9 0 0,0
20.06.2018 16:00:00 20,7 17,9 4 2 11 6 ENE 1018,7 14 0 0,0
20.06.2018 15:00:00 20,2 17,4 5 3 16 8 ENE 1018,9 17 0 0,0
20.06.2018 14:00:00 - - - - - - - - - - -
20.06.2018 13:00:00 - - - - - - - - - - -
20.06.2018 12:00:00 - - - - - - - - - - -
20.06.2018 11:00:00 - - - - - - - - - - -
20.06.2018 10:00:00 - - - - - - - - - - -
20.06.2018 09:00:00 17,4 15,3 10 5 14 7 E 1018,4 7 0 0,0
20.06.2018 08:00:00 17,8 16,0 10 5 16 9 E 1018,2 12 0 -
20.06.2018 07:00:00 17,5 15,7 10 5 18 10 E 1018,2 9 0 0,0
20.06.2018 06:00:00 17,2 15,3 10 5 17 9 E 1017,9 10 0 0,0
20.06.2018 05:00:00 17,3 15,4 13 7 21 11 E 1018,0 11 0 0,0
20.06.2018 04:00:00 17,2 15,3 14 7 29 16 E 1018,1 11 0 0,0
20.06.2018 03:00:00 17,2 15,3 19 10 30 16 E 1018,5 12 0 0,0
20.06.2018 02:00:00 17,1 15,3 14 8 34 19 ENE 1018,6 7 0 -
20.06.2018 01:00:00 - - - - - - - - - - -
20.06.2018 00:00:00 - - - - - - - - - - -
19.06.2018 23:00:00 - - - - - - - - - - -
19.06.2018 22:00:00 - - - - - - - - - - -
19.06.2018 21:00:00 17,9 15,0 24 13 51 28 NE 1018,6 14 59 0,0
19.06.2018 20:00:00 18,2 15,4 25 14 52 28 NE 1018,7 15 60 -
19.06.2018 19:00:00 18,5 15,3 32 17 53 29 NE 1018,9 20 60 0,0
19.06.2018 18:00:00 18,7 15,3 34 19 53 29 NE 1019,5 20 60 0,0
19.06.2018 17:00:00 - - - - - - - - - - -
19.06.2018 16:00:00 - - - - - - - - - - -
19.06.2018 15:00:00 - - - - - - - - - - -
19.06.2018 14:00:00 - - - - - - - - - - -
19.06.2018 13:00:00 - - - - - - - - - - -
19.06.2018 12:00:00 17,4 15,3 32 17 53 29 NE 1022,2 15 23 0,0
19.06.2018 11:00:00 17,2 15,2 30 16 48 26 NE 1022,4 20 15 0,0
19.06.2018 10:00:00 17,1 15,3 26 14 43 23 NE 1022,9 14 0 0,0
19.06.2018 09:00:00 16,8 14,8 21 11 40 21 NE 1023,1 19 0 0,0
19.06.2018 08:00:00 16,8 14,6 22 12 44 24 ENE 1023,3 17 0 -
19.06.2018 07:00:00 - - - - - - - - - - -
19.06.2018 06:00:00 - - - - - - - - - - -
19.06.2018 05:00:00 - - - - - - - - - - -
19.06.2018 04:00:00 - - - - - - - - - - -
19.06.2018 03:00:00 - - - - - - - - - - -
19.06.2018 02:00:00 - - - - - - - - - - -
19.06.2018 01:00:00 - - - - - - - - - - -
19.06.2018 00:00:00 - - - - - - - - - - -
18.06.2018 23:00:00 - - - - - - - - - - -
18.06.2018 22:00:00 - - - - - - - - - - -
18.06.2018 21:00:00 - - - - - - - - - - -
18.06.2018 20:00:00 - - - - - - - - - - -
18.06.2018 19:00:00 - - - - - - - - - - -
18.06.2018 18:00:00 - - - - - - - - - - -
18.06.2018 17:00:00 - - - - - - - - - - -
18.06.2018 16:00:00 - - - - - - - - - - -

tt = temperature
td = dewpoint
ff = wind speed
fx = gusts
dd = wind direction
ppp = reduced air pressure
vv = visibility
sd = sunshine duration
rr = precipitation

Next stations